Flag for Venezuela Weather past 2 weeks in Caracas, Venezuela

Now
75 °F

Sunny.


Feels Like: 75 °F
Forecast: 63 / 77 °F
Wind: No wind

Location: Caracas / Maiquetia Aerop. Intl. Simon Bolivar

Current Time: Jul 22, 2014 at 5:48:02 AM

Latest Report: Jul 22, 2014 at 5:30 AM


Visibility: 10 mi

Pressure: 29.95 "Hg

Humidity: 83%

Dew point: 70 °F

Location of CaracasLocation

Historic Weather in Caracas — Graph

°F

Caracas temperature yesterday

Maximum temperature yesterday: 86 °F (at 11:30 AM)
Minimum temperature yesterday: 77 °F (at 12:30 AM)
Average temperature yesterday: 80 °F

Past Weeks' High & Low Weather Summary

 TemperatureHumidityPressure
High90 °F (Jul 15, 2:30 PM)100% (Jul 14, 7:30 AM)30.04 "Hg (Jul 14, 7:30 AM)
Low73 °F (Jul 15, 10:30 PM)55% (Jul 8, 3:30 PM)29.92 "Hg (Jul 7, 4:30 PM)
Average80 °F75%29.98 "Hg
* Reported Jul 7 4:30 AM — Jul 22 4:30 AM, Caracas, Weather by CustomWeather, © 2014

Note: Actual official high and low records may vary slightly from our data, if they occured in-between our weather recording intervals... More about our weather records

Advertising

Caracas weather history for previous 24 hours

 ConditionsComfort  
Time TempWeatherWind HumidityBarometerVisibility
4:30 AM
Jul 22
77 °FClear.No wind74%29.92 "Hg10 mi
3:30 AM77 °FClear.No wind79%29.92 "Hg10 mi
1:30 AM77 °FClear.3 mph79%29.95 "Hg10 mi
11:30 PM
Jul 21
77 °FClear.2 mph83%29.98 "Hg10 mi
10:30 PMN/AClear.5 mphN/A29.98 "Hg10 mi
9:30 PM77 °FClear.2 mph69%29.95 "Hg10 mi
8:30 PM77 °FClear.5 mph79%29.95 "Hg10 mi
7:30 PM77 °FClear.3 mph79%29.95 "Hg10 mi
6:30 PM79 °FPassing clouds.5 mph74%29.92 "HgN/A
5:30 PM84 °FPassing clouds.5 mph62%29.92 "HgN/A
4:30 PM84 °FPassing clouds.2 mph62%29.92 "HgN/A
3:30 PM84 °FPassing clouds.2 mph66%29.95 "HgN/A
2:30 PM84 °FPassing clouds.3 mph66%29.95 "HgN/A
1:30 PM86 °FScattered clouds.5 mph62%29.98 "HgN/A
12:30 PM84 °FPassing clouds.3 mph66%30.01 "HgN/A
11:30 AM86 °FPassing clouds.5 mph66%30.01 "HgN/A
10:30 AM84 °FScattered clouds.5 mph66%30.01 "HgN/A
9:30 AM84 °FScattered clouds.3 mph74%30.04 "HgN/A
8:30 AM82 °FScattered clouds.No wind74%30.01 "HgN/A
7:30 AM79 °FScattered clouds.No wind79%29.98 "HgN/A
6:30 AM77 °FPartly sunny.3 mph79%29.98 "HgN/A
5:30 AM77 °FPartly sunny.No wind83%29.98 "HgN/A
Weather by CustomWeather, © 2014

See weather overviewHow to use our weather pages